This is the latest recevied weather packets stored in our database for station/object K9VSK-9. If no packets are shown the sender has not sent any weather packets the latest 10 day(s).
| Time | Temp. | Humidity | Pressure | Rain* | Wind** | Luminosity | Snow |
|---|---|---|---|---|---|---|---|
| 1778254988 | 14.44° C | 75% | 1011.7 hPa | 0 mm | - | - | - |
| 1778254688 | 14.44° C | 75% | 1011.5 hPa | 0 mm | - | - | - |
| 1778254388 | 14.44° C | 76% | 1011.5 hPa | 0 mm | - | - | - |
| 1778254087 | 14.44° C | 74% | 1011.3 hPa | 0 mm | - | - | - |
| 1778253787 | 14.44° C | 74% | 1011.3 hPa | 0 mm | - | - | - |
| 1778253487 | 14.44° C | 74% | 1011.3 hPa | 0 mm | - | - | - |
| 1778253186 | 14.44° C | 76% | 1011.3 hPa | 0 mm | - | - | - |
| 1778252886 | 14.44° C | 73% | 1011.7 hPa | 0 mm | - | - | - |
| 1778252586 | 14.44° C | 73% | 1011.5 hPa | 0 mm | - | - | - |
| 1778252286 | 14.44° C | 74% | 1011.6 hPa | 0 mm | - | - | - |
| 1778251985 | 14.44° C | 74% | 1011.5 hPa | 0 mm | - | - | - |
| 1778251685 | 14.44° C | 74% | 1011.5 hPa | 0 mm | - | - | - |
| 1778251385 | 14.44° C | 75% | 1011.6 hPa | 0 mm | - | - | - |
| 1778251084 | 14.44° C | 75% | 1011.7 hPa | 0 mm | - | - | - |
| 1778250784 | 14.44° C | 74% | 1011.7 hPa | 0 mm | - | - | - |
| 1778250484 | 13.89° C | 75% | 1011.8 hPa | 0 mm | - | - | - |
| 1778250184 | 13.89° C | 74% | 1011.8 hPa | 0 mm | - | - | - |
| 1778249883 | 13.89° C | 75% | 1011.7 hPa | 0 mm | - | - | - |
| 1778249583 | 13.89° C | 75% | 1011.6 hPa | 0 mm | - | - | - |
| 1778249283 | 13.89° C | 74% | 1011.6 hPa | 0 mm | - | - | - |
| 1778248983 | 13.89° C | 74% | 1011.6 hPa | 0 mm | - | - | - |
| 1778248682 | 14.44° C | 73% | 1011.6 hPa | 0 mm | - | - | - |
| 1778248382 | 14.44° C | 73% | 1011.6 hPa | 0 mm | - | - | - |
| 1778248082 | 13.89° C | 75% | 1011.5 hPa | 0 mm | - | - | - |
| 1778247781 | 13.89° C | 77% | 1011.6 hPa | 0 mm | - | - | - |
* Rain latest hour (hover to see other rain measurements)
** Current wind speed in m/s (hover to see current wind gust speed)